[[{"header":{"parameterUnit":"m.s-1","parameterCategory":1,"la1":30.2991,"la2":30.254,"lo1":-89.0895,"lo2":-89.0444,"dy":0.0017,"dx":0.0017,"nx":28,"ny":28,"refTime":"2024-04-09T21:00:00:Z","depth":0,"parameterNumber":2,"parameterNumberName":"U-component_of_WINDS"},"data":[0,0,0,0,0,0,0,0,0,0,0,0,0,0,0,0,0,0,0,0,0,0,0,0,0,0,0,0,0,0,0,0,0,0,0,0,0,0,0,0,0,0,0,0,0,0,0,0,0,0,0,0,0,0,0,0,0,0,-5.1492,-5.1493,0,-5.1586,-5.1587,-5.1588,-5.1579,-5.1578,-5.1576,-5.1575,-5.1673,-5.1677,-5.1681,0,0,0,0,0,0,0,0,0,0,0,0,0,-5.1305,-5.1308,-5.1491,-5.1493,-5.1494,-5.1586,-5.1587,-5.1589,-5.158,-5.1578,-5.1576,-5.1574,-5.1672,-5.1676,-5.1681,0,0,0,0,0,0,0,0,0,0,0,0,0,-5.1391,-5.1309,-5.1491,-5.15,-5.1502,-5.1586,-5.1587,-5.1589,-5.158,-5.1578,-5.1576,-5.1574,-5.167,-5.1676,-5.1682,-5.1763,0,0,-5.17,-5.1703,0,0,0,0,0,0,0,0,-5.1386,-5.1398,-5.1498,-5.15,-5.1502,-5.1569,-5.1557,-5.1647,-5.1581,-5.1551,-5.1575,-5.1572,-5.164,-5.1648,-5.1671,-5.1767,-5.1771,-5.1701,-5.1704,-5.1707,-5.1708,0,0,0,0,0,0,0,-5.138,-5.1394,-5.1529,-5.1499,-5.1502,-5.15,-5.151,-5.1574,-5.1607,-5.1553,-5.1553,-5.1564,-5.1641,-5.1665,-5.1673,-5.1773,-5.17,-5.1706,-5.1709,-5.1712,-5.194,-5.1942,0,0,0,0,0,0,-5.1372,-5.1389,-5.1526,-5.1532,-5.1438,-5.1506,-5.1517,-5.155,-5.1606,-5.1612,-5.1566,-5.1563,-5.1656,-5.1666,-5.1677,-5.1774,-5.1707,-5.1712,-5.1716,-5.1938,-5.1941,-5.1943,0,0,0,0,0,0,-5.1368,-5.1384,-5.1522,-5.146,-5.1478,-5.1511,-5.1548,-5.1553,-5.1577,-5.1615,-5.1621,-5.1584,-5.1655,-5.1668,-5.1741,-5.1777,-5.1715,-5.172,-5.1935,-5.1938,-5.1942,-5.1969,0,0,0,0,0,0,-5.1363,-5.1383,-5.1413,-5.1461,-5.1481,-5.1584,-5.155,-5.1556,-5.1587,-5.1585,-5.1635,-5.1641,-5.1654,-5.1732,-5.1747,-5.1784,-5.1725,-5.1931,-5.1936,-5.1941,-5.1965,-5.1973,-5.1981,0,0,0,0,0,-5.1356,-5.1418,-5.1415,-5.1431,-5.152,-5.1586,-5.1598,-5.1612,-5.159,-5.1621,-5.1646,-5.1639,-5.1772,-5.174,-5.1756,-5.1796,-5.1929,-5.1935,-5.194,-5.1962,-5.1972,-5.198,0,0,0,0,0,0,-5.1373,-5.1424,-5.1421,-5.15,-5.1539,-5.1585,-5.1624,-5.1622,-5.1668,-5.1664,-5.168,-5.1691,-5.1764,-5.1788,-5.1752,-5.1877,-5.1848,-5.1857,-5.1858,-5.1868,-5.1876,-5.1867,-5.173,0,0,0,0,0,-5.1386,-5.1436,-5.1478,-5.1543,-5.1563,-5.159,-5.162,-5.1628,-5.1668,-5.1685,-5.1715,-5.1755,-5.1806,-5.1839,-5.1888,-5.197,-5.198,-5.2005,-5.2013,-5.2019,-5.2026,-5.207,-5.2082,-5.1962,-5.1962,-5.1961,0,0,-5.1413,-5.1447,-5.1477,-5.1548,-5.1578,-5.1629,-5.1604,-5.1659,-5.1697,-5.1693,-5.1763,-5.1787,-5.1834,-5.1911,-5.1947,-5.1933,-5.2062,-5.2026,-5.2031,-5.2034,-5.2077,-5.2088,-5.2099,-5.1965,-5.1965,-5.1964,0,0,-5.1488,-5.152,-5.1577,-5.1609,-5.1656,-5.1674,-5.1688,-5.1735,-5.175,-5.1821,-5.1819,-5.1865,-5.1952,-5.1985,-5.2013,-5.2102,-5.2097,-5.2118,-5.2157,-5.22,-5.2209,-5.2218,-5.2248,-5.2258,-5.2125,-5.2126,-5.2126,0,-5.1515,-5.1592,-5.1607,-5.1662,-5.1693,-5.1692,-5.175,-5.1781,-5.1842,-5.1863,-5.1848,-5.1957,-5.1988,-5.2073,-5.2094,-5.2118,-5.2134,-5.2111,-5.2207,-5.2215,-5.2223,-5.2252,-5.2264,-5.2128,-5.2127,-5.2127,-5.2127,0,-5.1622,-5.1676,-5.1717,-5.1775,-5.1811,-5.1867,-5.1891,-5.1926,-5.1931,-5.1951,-5.2024,-5.2062,-5.2118,-5.2139,-5.2145,-5.2225,-5.2215,-5.2203,-5.2173,-5.2236,-5.2264,-5.2275,-5.213,-5.213,-5.2129,-5.2129,0,0,-5.1708,-5.1775,-5.1789,-5.1815,-5.1868,-5.191,-5.1967,-5.2022,-5.2051,-5.2094,-5.2142,-5.2216,-5.2206,-5.2238,-5.2248,-5.2286,-5.2352,-5.2269,-5.2271,-5.2281,-5.2441,-5.2448,-5.246,-5.2351,-5.2353,-5.2355,-5.2437,0,-5.1786,-5.1886,-5.1902,-5.199,-5.2039,-5.204,-5.209,-5.2128,-5.2149,-5.2194,-5.2218,-5.227,-5.2253,-5.2272,-5.231,-5.2336,-5.2384,-5.2331,-5.2395,-5.2397,-5.238,-5.2475,-5.2482,-5.2557,-5.2448,-5.245,-5.2451,0,-5.189,-5.1935,-5.2027,-5.2073,-5.2095,-5.2139,-5.219,-5.2234,-5.2278,-5.229,-5.2327,-5.2333,-5.2393,-5.2363,-5.2445,-5.2408,-5.2436,-5.2453,-5.2456,-5.246,-5.2425,-5.2479,-5.2581,-5.2592,-5.2468,-5.2467,-5.2466,0,-5.194,-5.2024,-5.209,-5.2113,-5.2169,-5.22,-5.2225,-5.2267,-5.2299,-5.2345,-5.2365,-5.2418,-5.2446,-5.2487,-5.2507,-5.2484,-5.2588,-5.256,-5.2599,-5.2599,-5.2618,-5.2616,-5.2724,-5.2641,-5.2641,-5.2641,-5.2641,0,-5.2023,-5.2079,-5.2113,-5.2153,-5.2216,-5.2235,-5.2297,-5.2322,-5.2359,-5.2405,-5.2411,-5.2453,-5.2479,-5.2525,-5.2542,-5.2607,-5.262,-5.2632,-5.2635,-5.263,-5.2628,-5.2646,-5.264,-5.2644,-5.2643,-5.2643,-5.2642,0,-5.2088,-5.2113,-5.2185,-5.2233,-5.2246,-5.229,-5.2332,-5.2371,-5.2393,-5.245,-5.2465,-5.2499,-5.2555,-5.258,-5.2648,-5.2659,-5.2733,-5.2734,-5.2717,-5.2718,-5.2755,-5.275,-5.2875,-5.2892,-5.2801,-5.2801,-5.2802,0,-5.2139,-5.2182,-5.2234,-5.2265,-5.229,-5.234,-5.2373,-5.2394,-5.2428,-5.2482,-5.2514,-5.257,-5.2615,-5.2703,-5.2735,-5.2787,-5.2788,-5.2828,-5.2796,-5.2789,-5.2786,-5.2782,-5.2785,-5.2833,-5.2834,-5.2835,-5.2835,0,-5.2225,-5.2235,-5.2281,-5.2333,-5.2371,-5.2413,-5.2453,-5.2478,-5.2506,-5.2544,-5.26,-5.2635,-5.2705,-5.276,-5.2815,-5.2841,-5.2843,-5.2846,-5.2857,-5.2851,-5.2838,-5.2843,-5.273,-5.2842,-5.2841,-5.2841,-5.2841,-5.284,-5.2282,-5.232,-5.2363,-5.2415,-5.2448,-5.2486,-5.2525,-5.2552,-5.2599,-5.2656,-5.2667,-5.2727,-5.2771,-5.2844,-5.2873,-5.292,-5.2911,-5.2928,-5.2932,-5.2935,-5.2936,-5.2833,-5.2931,-5.2931,-5.2931,-5.293,-5.293,0,-5.2366,-5.2394,-5.2442,-5.2498,-5.2539,-5.2538,-5.2583,-5.2617,-5.2669,-5.271,-5.2754,-5.2819,-5.2873,-5.2909,-5.2963,-5.2994,-5.2996,-5.3007,-5.3004,-5.3009,-5.2942,-5.2926,-5.3005,-5.3005,-5.3004,-5.3004,-5.3004,-5.3004,-5.2415,-5.2478,-5.2494,-5.2575,-5.2603,-5.266,-5.2686,-5.2721,-5.2754,-5.2825,-5.287,-5.2893,-5.2932,-5.2989,-5.3039,-5.3048,-5.3067,-5.3078,-5.3086,-5.3022,-5.3014,-5.3007,-5.2991,-5.3082,-5.3083,-5.3149,-5.315,-5.3151]},{"header":{"parameterUnit":"m.s-1","parameterCategory":1,"la1":30.2991,"la2":30.254,"lo1":-89.0895,"lo2":-89.0444,"dy":0.0017,"dx":0.0017,"nx":28,"ny":28,"refTime":"2024-04-09T21:00:00:Z","depth":0,"parameterNumber":3,"parameterNumberName":"V-component_of_WINDS"},"data":[0,0,0,0,0,0,0,0,0,0,0,0,0,0,0,0,0,0,0,0,0,0,0,0,0,0,0,0,0,0,0,0,0,0,0,0,0,0,0,0,0,0,0,0,0,0,0,0,0,0,0,0,0,0,0,0,0,0,4.4405,4.4406,0,4.4466,4.4466,4.4467,4.4468,4.4467,4.4466,4.4465,4.4521,4.4523,4.4525,0,0,0,0,0,0,0,0,0,0,0,0,0,4.4285,4.4288,4.4405,4.4406,4.4407,4.4465,4.4466,4.4467,4.4468,4.4467,4.4466,4.4465,4.452,4.4523,4.4525,0,0,0,0,0,0,0,0,0,0,0,0,0,4.434,4.4288,4.4405,4.4414,4.4416,4.4465,4.4466,4.4467,4.4468,4.4467,4.4466,4.4465,4.4519,4.4522,4.4526,4.4568,0,0,4.4536,4.4537,0,0,0,0,0,0,0,0,4.4337,4.4345,4.4412,4.4414,4.4416,4.4458,4.4444,4.4501,4.4468,4.4448,4.4465,4.4464,4.45,4.4505,4.4519,4.4571,4.4573,4.4536,4.4538,4.4539,4.454,0,0,0,0,0,0,0,4.4334,4.4342,4.4429,4.4413,4.4415,4.4414,4.442,4.4455,4.4479,4.445,4.445,4.4457,4.4501,4.4516,4.452,4.4574,4.4536,4.4539,4.4541,4.4542,4.4665,4.4666,0,0,0,0,0,0,4.4329,4.4339,4.4427,4.4431,4.4373,4.4417,4.4424,4.4445,4.4479,4.4483,4.4458,4.4457,4.4511,4.4516,4.4522,4.4575,4.4539,4.4542,4.4544,4.4663,4.4665,4.4666,0,0,0,0,0,0,4.4326,4.4337,4.4425,4.4385,4.4396,4.442,4.4444,4.4447,4.4462,4.4486,4.4489,4.4469,4.451,4.4517,4.4557,4.4577,4.4544,4.4547,4.4662,4.4664,4.4666,4.468,0,0,0,0,0,0,4.4323,4.4336,4.4353,4.4386,4.4398,4.4461,4.4445,4.4449,4.4468,4.4467,4.4497,4.45,4.451,4.4552,4.456,4.4581,4.4549,4.466,4.4663,4.4665,4.4678,4.4683,4.4686,0,0,0,0,0,4.4318,4.4353,4.4354,4.4365,4.4421,4.4462,4.4469,4.448,4.447,4.4487,4.4502,4.45,4.4573,4.4556,4.4566,4.4587,4.4659,4.4662,4.4665,4.4676,4.4682,4.4686,0,0,0,0,0,0,4.432,4.4358,4.4359,4.4406,4.4431,4.4462,4.4484,4.4485,4.4512,4.451,4.4521,4.4528,4.4568,4.4581,4.4562,4.463,4.4615,4.4619,4.462,4.4626,4.463,4.4625,4.4552,0,0,0,0,0,4.4326,4.4358,4.4388,4.4427,4.444,4.446,4.4478,4.4485,4.451,4.452,4.4538,4.4561,4.459,4.4608,4.4636,4.468,4.4686,4.4699,4.4703,4.4706,4.4711,4.4736,4.4742,4.4676,4.4676,4.4676,0,0,4.4339,4.4363,4.4382,4.4428,4.4448,4.4479,4.4468,4.4501,4.4524,4.4524,4.4564,4.4578,4.4605,4.4648,4.4667,4.466,4.473,4.471,4.4713,4.4715,4.4739,4.4746,4.4751,4.4678,4.4678,4.4677,0,0,4.4377,4.4399,4.4435,4.4456,4.4487,4.4501,4.4509,4.454,4.4551,4.4591,4.4592,4.4618,4.4667,4.4687,4.4703,4.475,4.4749,4.4759,4.478,4.4804,4.4809,4.4814,4.4831,4.4837,4.4763,4.4763,4.4763,0,4.4388,4.4438,4.4451,4.4486,4.4506,4.451,4.4545,4.4564,4.4602,4.4615,4.4606,4.4669,4.4687,4.4734,4.4746,4.4759,4.4768,4.4755,4.4808,4.4812,4.4817,4.4834,4.484,4.4764,4.4763,4.4763,4.4763,0,4.445,4.4484,4.4508,4.4548,4.457,4.4604,4.4622,4.4643,4.4648,4.4662,4.4703,4.4725,4.4757,4.4769,4.4773,4.4817,4.4812,4.4806,4.479,4.4824,4.484,4.4847,4.4765,4.4765,4.4764,4.4764,0,0,4.4491,4.4539,4.4548,4.4567,4.4603,4.4628,4.4662,4.4696,4.4714,4.474,4.4768,4.481,4.4805,4.4824,4.483,4.4851,4.4888,4.4842,4.4843,4.485,4.4939,4.4944,4.4952,4.4888,4.4889,4.489,4.4937,0,4.4534,4.4598,4.4612,4.4665,4.4697,4.4702,4.4731,4.4755,4.4769,4.4797,4.4811,4.4841,4.4831,4.4843,4.4864,4.4879,4.4906,4.4876,4.4913,4.4914,4.4907,4.496,4.4965,4.5009,4.4943,4.4944,4.4945,0,4.4593,4.4624,4.4682,4.4715,4.4729,4.4755,4.4788,4.4815,4.4842,4.485,4.4872,4.4876,4.4911,4.4894,4.4941,4.492,4.4936,4.4945,4.4947,4.4951,4.4932,4.4966,4.5023,4.503,4.4955,4.4954,4.4954,0,4.4619,4.4674,4.4716,4.4732,4.4771,4.479,4.4806,4.4833,4.4853,4.4881,4.4894,4.4925,4.4941,4.4964,4.4976,4.4963,4.5023,4.5006,4.503,4.503,4.5043,4.5042,4.5104,4.5052,4.5052,4.5052,4.5052,0,4.4666,4.4701,4.4728,4.4754,4.4794,4.4809,4.4847,4.4863,4.4887,4.4915,4.4919,4.4945,4.496,4.4987,4.4996,4.5034,4.5041,4.5049,4.5051,4.5049,4.5048,4.5059,4.5057,4.5054,4.5053,4.5053,4.5053,0,4.4701,4.4721,4.4767,4.4802,4.4811,4.4839,4.4867,4.4892,4.4906,4.4941,4.495,4.4972,4.5005,4.5019,4.5059,4.5065,4.5109,4.5108,4.51,4.5101,4.5124,4.5122,4.5196,4.5207,4.5147,4.5148,4.5148,0,4.473,4.4758,4.4796,4.4817,4.4835,4.4867,4.4889,4.4904,4.4926,4.496,4.498,4.5014,4.5041,4.5093,4.5111,4.5142,4.5142,4.5166,4.5147,4.5144,4.5143,4.5142,4.5145,4.517,4.517,4.5171,4.5171,0,4.4781,4.479,4.4821,4.4857,4.4883,4.4911,4.4938,4.4954,4.4973,4.4997,4.5032,4.5054,4.5096,4.5128,4.516,4.5175,4.5176,4.5177,4.5184,4.5183,4.5177,4.5181,4.5111,4.5175,4.5175,4.5175,4.5174,4.5174,4.4814,4.484,4.4872,4.4907,4.493,4.4955,4.4981,4.4999,4.5029,4.5066,4.5073,4.511,4.5137,4.518,4.5196,4.5225,4.5219,4.5229,4.5232,4.5234,4.5236,4.5173,4.523,4.523,4.523,4.523,4.523,0,4.4866,4.4887,4.4919,4.4959,4.4987,4.4987,4.5018,4.504,4.5074,4.51,4.5128,4.5168,4.52,4.5221,4.5253,4.5272,4.5273,4.528,4.5279,4.5283,4.5239,4.523,4.5279,4.5279,4.5279,4.5279,4.5279,4.5279,4.4896,4.494,4.4952,4.5007,4.5027,4.5065,4.5083,4.5106,4.5127,4.5173,4.5201,4.5215,4.5239,4.5273,4.5302,4.5308,4.5319,4.5327,4.5331,4.529,4.5285,4.5281,4.5272,4.5329,4.5329,4.5373,4.5373,4.5373]}]]